Change the Weather History Date:

Thursday, November 7, 2013

  Actual Average (KLWV) Record (KLWV)
Temperature  
Mean Temperature 42 °F 50 °F  
Max Temperature 52 °F 60 °F 70 °F (2001)
Min Temperature 32 °F 40 °F 17 °F (1993)
Degree Days  
Heating Degree Days 23 15  
Month to date heating degree days 98  
Since 1 July heating degree days 395  
Cooling Degree Days 0 0  
Month to date cooling degree days 0  
Year to date cooling degree days 1386  
Moisture  
Dew Point 33 °F    
Average Humidity 72    
Maximum Humidity 96    
Minimum Humidity 39    
Precipitation  
Precipitation 0.06 in 0.12 in 1.82 in (1996)
Month to date precipitation 0.84  
Year to date precipitation 37.36  
Sea Level Pressure  
Sea Level Pressure 30.30 in    
Wind  
Wind Speed 6 mph (WNW)    
Max Wind Speed 14 mph    
Max Gust Speed 22 mph    
Visibility 10 miles    
Events      
T = Trace of Precipitation, MM = Missing Value Source: NWS Daily Summary

Daily Weather History Graph

Daily Weather History Graph

Search for Another Location

Airport or City:

Trip Planner

Search our weather history database for the weather conditions in past years. The results will help you decide how hot, cold, wet, or windy it might be!

Date:

Astronomy

Nov. 07, 2013 Rise Set
Actual Time 6:24 AM CST 4:43 PM CST
Civil Twilight 5:56 AM CST 5:11 PM CST
Nautical Twilight 5:24 AM CST 5:43 PM CST
Astronomical Twilight 4:53 AM CST 6:14 PM CST
Moon 10:32 AM CST (11/7) 8:54 PM CST (11/7)
Length of Visible Light 11h 14m
Length of Day
10h 18m
Waxing Crescent, 23% of the Moon is Illuminated
Nov 7
Waxing Crescent
Nov 9
First Quarter
Nov 17
Full
Nov 25
Last Quarter
Dec 2
New

Hourly Weather History & Observations

Time (CST) Temp. Windchill Dew Point Humidity Pressure Visibility Wind Dir Wind Speed Gust Speed Precip Events Conditions
12:15 AM 40.8 °F 35.6 °F 39.2 °F 94% 30.21 in 10.0 mi WNW 8.1 mph - N/A   Clear
12:35 AM 40.5 °F 35.1 °F 38.7 °F 93% 30.22 in 10.0 mi NW 8.1 mph - N/A   Clear
12:55 AM 40.3 °F 35.5 °F 37.9 °F 91% 30.22 in 10.0 mi NW 6.9 mph - N/A   Clear
1:55 AM 38.5 °F 33.4 °F 35.6 °F 89% 30.23 in 10.0 mi NW 6.9 mph - N/A   Clear
2:15 AM 37.9 °F 33.5 °F 35.1 °F 89% 30.24 in 10.0 mi NW 5.8 mph - N/A   Clear
2:35 AM 37.6 °F 33.1 °F 34.9 °F 90% 30.25 in 10.0 mi NW 5.8 mph - N/A   Clear
2:55 AM 36.9 °F 32.2 °F 34.2 °F 90% 30.25 in 10.0 mi NW 5.8 mph - N/A   Clear
3:15 AM 36.9 °F 33.1 °F 34.0 °F 89% 30.26 in 10.0 mi NW 4.6 mph - N/A   Clear
3:35 AM 36.7 °F 32.0 °F 33.6 °F 89% 30.26 in 10.0 mi NW 5.8 mph - N/A   Clear
3:55 AM 36.1 °F 32.3 °F 33.1 °F 89% 30.26 in 10.0 mi NNW 4.6 mph - N/A   Clear
4:15 AM 35.6 °F 31.7 °F 32.9 °F 90% 30.27 in 10.0 mi NW 4.6 mph - N/A   Clear
4:35 AM 35.6 °F 31.7 °F 32.9 °F 90% 30.28 in 10.0 mi NW 4.6 mph - N/A   Clear
4:55 AM 35.2 °F 31.2 °F 32.5 °F 90% 30.29 in 10.0 mi NW 4.6 mph - N/A   Clear
5:15 AM 34.7 °F 30.6 °F 32.0 °F 90% 30.30 in 10.0 mi NW 4.6 mph - N/A   Clear
5:35 AM 34.3 °F 31.4 °F 32.0 °F 91% 30.30 in 10.0 mi NW 3.5 mph - N/A   Clear
5:55 AM 33.8 °F 30.8 °F 32.0 °F 93% 30.31 in 10.0 mi WNW 3.5 mph - N/A   Clear
6:15 AM 32.9 °F 29.8 °F 31.8 °F 96% 30.31 in 10.0 mi WNW 3.5 mph - N/A   Clear
6:35 AM 32.7 °F 29.6 °F 31.6 °F 96% 30.32 in 10.0 mi West 3.5 mph - N/A   Clear
6:55 AM 32.9 °F 29.8 °F 32.0 °F 96% 30.33 in 10.0 mi WNW 3.5 mph - N/A   Clear
7:15 AM 34.0 °F 31.0 °F 32.7 °F 95% 30.34 in 10.0 mi West 3.5 mph - N/A   Clear
7:35 AM 35.6 °F - 33.8 °F 93% 30.34 in 10.0 mi Calm Calm - N/A   Clear
7:55 AM 37.2 °F 34.7 °F 33.8 °F 87% 30.36 in 10.0 mi West 3.5 mph - N/A   Clear
8:15 AM 38.5 °F 35.0 °F 34.2 °F 84% 30.36 in 10.0 mi West 4.6 mph - N/A   Clear
8:35 AM 40.1 °F 36.9 °F 34.3 °F 80% 30.37 in 10.0 mi West 4.6 mph - N/A   Clear
8:55 AM 41.5 °F 39.6 °F 34.9 °F 77% 30.38 in 10.0 mi WNW 3.5 mph - N/A   Clear
9:15 AM 42.8 °F 41.1 °F 34.5 °F 73% 30.37 in 10.0 mi NW 3.5 mph - N/A   Clear
9:35 AM 43.3 °F 40.7 °F 34.2 °F 70% 30.37 in 10.0 mi WNW 4.6 mph - N/A   Clear
9:55 AM 44.8 °F - 33.4 °F 64% 30.36 in 10.0 mi Calm Calm - N/A   Clear
10:15 AM 45.3 °F - 32.2 °F 60% 30.37 in 10.0 mi Calm Calm - N/A   Clear
10:35 AM 46.4 °F - 32.2 °F 58% 30.37 in 10.0 mi Calm Calm - N/A   Clear
10:55 AM 47.8 °F - 30.0 °F 50% 30.35 in 10.0 mi NW 3.5 mph - N/A   Clear
11:15 AM 48.6 °F - 29.1 °F 47% 30.35 in 10.0 mi WNW 3.5 mph - N/A   Clear
11:35 AM 50.0 °F - 31.1 °F 48% 30.34 in 10.0 mi West 6.9 mph - N/A   Clear
11:55 AM 50.5 °F - 30.7 °F 47% 30.32 in 10.0 mi West 6.9 mph - N/A   Clear
12:15 PM 50.7 °F - 28.6 °F 42% 30.32 in 10.0 mi West 9.2 mph 16.1 mph N/A   Clear
12:35 PM 51.3 °F - 29.7 °F 44% 30.32 in 10.0 mi WNW 13.8 mph 20.7 mph N/A   Clear
12:55 PM 51.6 °F - 29.3 °F 42% 30.31 in 10.0 mi West 10.4 mph - N/A   Clear
1:15 PM 52.3 °F - 28.0 °F 39% 30.30 in 10.0 mi WSW 9.2 mph 19.6 mph N/A   Clear
1:35 PM 52.3 °F - 28.2 °F 39% 30.29 in 10.0 mi WSW 13.8 mph 19.6 mph N/A   Clear
1:55 PM 52.7 °F - 29.5 °F 41% 30.29 in 10.0 mi West 12.7 mph 17.3 mph N/A   Clear
2:15 PM 52.5 °F - 28.8 °F 40% 30.29 in 10.0 mi West 12.7 mph 21.9 mph N/A   Clear
2:35 PM 52.5 °F - 31.1 °F 44% 30.28 in 10.0 mi West 10.4 mph - N/A   Clear
2:55 PM 52.2 °F - 32.5 °F 47% 30.27 in 10.0 mi West 13.8 mph 19.6 mph N/A   Clear
3:15 PM 52.2 °F - 32.9 °F 48% 30.27 in 10.0 mi West 12.7 mph 18.4 mph N/A   Clear
3:35 PM 51.6 °F - 33.8 °F 51% 30.27 in 10.0 mi West 10.4 mph - N/A   Clear
3:55 PM 51.1 °F - 34.3 °F 53% 30.27 in 10.0 mi West 12.7 mph - N/A   Clear
4:15 PM 50.4 °F - 35.1 °F 56% 30.27 in 10.0 mi West 8.1 mph - N/A   Mostly Cloudy
4:55 PM 47.3 °F - 36.0 °F 65% 30.27 in 10.0 mi WSW 8.1 mph - N/A   Scattered Clouds
5:15 PM 47.5 °F - 37.2 °F 68% 30.27 in 10.0 mi WSW 6.9 mph - N/A   Mostly Cloudy
5:35 PM 46.4 °F 43.5 °F 37.6 °F 71% 30.27 in 10.0 mi WSW 5.8 mph - N/A   Mostly Cloudy
5:55 PM 46.6 °F - 38.3 °F 73% 30.28 in 10.0 mi WSW 6.9 mph - N/A   Overcast
6:15 PM 45.9 °F 41.7 °F 37.8 °F 73% 30.28 in 10.0 mi SW 8.1 mph - N/A   Mostly Cloudy
6:35 PM 46.6 °F - 38.3 °F 73% 30.29 in 10.0 mi WSW 8.1 mph - N/A   Mostly Cloudy
6:55 PM 46.6 °F - 37.9 °F 72% 30.29 in 10.0 mi West 9.2 mph - N/A   Mostly Cloudy
7:15 PM 47.1 °F - 37.9 °F 70% 30.29 in 10.0 mi West 10.4 mph - N/A   Mostly Cloudy
7:35 PM 46.2 °F 41.2 °F 36.5 °F 69% 30.30 in 10.0 mi WNW 10.4 mph - N/A   Scattered Clouds
7:55 PM 45.1 °F 41.4 °F 36.0 °F 70% 30.30 in 10.0 mi NW 6.9 mph - N/A   Clear
8:15 PM 44.1 °F 40.1 °F 34.9 °F 70% 30.31 in 10.0 mi NW 6.9 mph - N/A   Clear
8:35 PM 43.7 °F 39.1 °F 33.4 °F 67% 30.32 in 10.0 mi NW 8.1 mph - N/A   Clear
8:55 PM 42.3 °F 38.6 °F 32.9 °F 69% 30.33 in 10.0 mi NW 5.8 mph - N/A   Clear
9:15 PM 41.5 °F 37.8 °F 32.2 °F 69% 30.33 in 10.0 mi NW 5.8 mph - N/A   Clear
9:35 PM 40.3 °F 38.2 °F 32.0 °F 72% 30.33 in 10.0 mi NNW 3.5 mph - N/A   Clear
9:55 PM 40.1 °F 36.9 °F 32.0 °F 73% 30.34 in 10.0 mi NW 4.6 mph - N/A   Clear
10:15 PM 39.2 °F - 31.8 °F 75% 30.33 in 10.0 mi Calm Calm - N/A   Clear
10:35 PM 38.8 °F - 31.6 °F 75% 30.32 in 10.0 mi Calm Calm - N/A   Clear
10:55 PM 36.0 °F - 31.1 °F 82% 30.33 in 10.0 mi Calm Calm - N/A   Clear
11:15 PM 35.6 °F 31.7 °F 31.1 °F 84% 30.32 in 10.0 mi NE 4.6 mph - N/A   Clear
11:35 PM 33.1 °F 30.0 °F 31.6 °F 94% 30.33 in 10.0 mi SSW 3.5 mph - N/A   Clear
11:55 PM 33.4 °F 30.4 °F 31.5 °F 92% 30.33 in 10.0 mi SW 3.5 mph - N/A   Clear